[[{"header":{"parameterUnit":"m.s-1","parameterCategory":1,"la1":30.2991,"la2":30.254,"lo1":-89.0895,"lo2":-89.0444,"dy":0.0017,"dx":0.0017,"nx":28,"ny":28,"refTime":"2026-02-24T09:00:00:Z","depth":0,"parameterNumber":2,"parameterNumberName":"U-component_of_WINDS"},"data":[0,0,0,0,0,0,0,0,0,0,0,0,0,0,0,0,0,0,0,0,0,0,0,0,0,0,0,0,0,0,0,0,0,0,0,0,0,0,0,0,0,0,0,0,0,0,0,0,0,0,0,0,0,0,0,0,0,0,-2.7568,-2.7568,0,-2.7593,-2.7594,-2.7594,-2.7551,-2.755,-2.7548,-2.7547,-2.7573,-2.7575,-2.7577,0,0,0,0,0,0,0,0,0,0,0,0,0,-2.7482,-2.7484,-2.7568,-2.7568,-2.7568,-2.7593,-2.7594,-2.7594,-2.7551,-2.755,-2.7548,-2.7546,-2.7572,-2.7575,-2.7577,0,0,0,0,0,0,0,0,0,0,0,0,0,-2.7514,-2.7484,-2.7567,-2.755,-2.7549,-2.7593,-2.7594,-2.7594,-2.7552,-2.755,-2.7547,-2.7545,-2.7571,-2.7574,-2.7577,-2.764,0,0,-2.7587,-2.7588,0,0,0,0,0,0,0,0,-2.7513,-2.7518,-2.7552,-2.7551,-2.755,-2.7567,-2.7573,-2.7609,-2.7552,-2.7551,-2.7547,-2.7544,-2.7573,-2.7575,-2.7585,-2.7641,-2.7642,-2.7587,-2.7589,-2.759,-2.7591,0,0,0,0,0,0,0,-2.751,-2.7516,-2.7578,-2.7553,-2.7551,-2.7541,-2.7543,-2.758,-2.7574,-2.7551,-2.7548,-2.7551,-2.7572,-2.7582,-2.7585,-2.7643,-2.7587,-2.759,-2.7592,-2.7593,-2.7752,-2.7754,0,0,0,0,0,0,-2.751,-2.7515,-2.7577,-2.7578,-2.7526,-2.7544,-2.7547,-2.7564,-2.7573,-2.7572,-2.7553,-2.7549,-2.7578,-2.7582,-2.7586,-2.766,-2.759,-2.7593,-2.7595,-2.775,-2.7752,-2.7755,0,0,0,0,0,0,-2.7509,-2.7516,-2.7576,-2.7546,-2.7553,-2.7548,-2.7567,-2.7565,-2.7576,-2.7575,-2.7574,-2.7565,-2.7576,-2.7582,-2.7627,-2.766,-2.7595,-2.7597,-2.7747,-2.775,-2.7754,-2.7808,0,0,0,0,0,0,-2.7506,-2.7516,-2.754,-2.7547,-2.7554,-2.7616,-2.7569,-2.7567,-2.7581,-2.7576,-2.7586,-2.7585,-2.7575,-2.7623,-2.763,-2.7663,-2.76,-2.7744,-2.7748,-2.7753,-2.7803,-2.7813,-2.7821,0,0,0,0,0,-2.7504,-2.7554,-2.7541,-2.7549,-2.7584,-2.7618,-2.7623,-2.761,-2.7584,-2.7608,-2.7607,-2.7585,-2.7656,-2.7628,-2.7636,-2.767,-2.7742,-2.7747,-2.7752,-2.7799,-2.7811,-2.7821,0,0,0,0,0,0,-2.755,-2.7554,-2.754,-2.7594,-2.7606,-2.7611,-2.764,-2.7623,-2.7643,-2.7637,-2.7621,-2.7624,-2.7672,-2.7676,-2.7645,-2.7731,-2.7694,-2.7701,-2.7727,-2.7738,-2.7747,-2.7745,-2.7602,0,0,0,0,0,-2.7567,-2.7595,-2.7597,-2.7644,-2.7651,-2.7645,-2.7659,-2.7649,-2.7661,-2.7666,-2.7668,-2.7681,-2.7706,-2.7722,-2.7745,-2.7804,-2.7805,-2.7832,-2.7841,-2.7848,-2.7854,-2.7885,-2.7897,-2.7773,-2.7773,-2.7772,0,0,-2.7601,-2.7607,-2.7625,-2.7654,-2.7662,-2.7691,-2.7649,-2.7682,-2.7703,-2.767,-2.7713,-2.7716,-2.7729,-2.7781,-2.7804,-2.7785,-2.7889,-2.7855,-2.7861,-2.7863,-2.7892,-2.7904,-2.7914,-2.7776,-2.7776,-2.7775,0,0,-2.7679,-2.7686,-2.7726,-2.7736,-2.7749,-2.7744,-2.7754,-2.7762,-2.7763,-2.7805,-2.7781,-2.7807,-2.785,-2.786,-2.7871,-2.7954,-2.7934,-2.7962,-2.8009,-2.8039,-2.8049,-2.8058,-2.8087,-2.8097,-2.7968,-2.7968,-2.7968,0,-2.772,-2.7763,-2.7749,-2.7784,-2.7797,-2.7769,-2.781,-2.7819,-2.7839,-2.7849,-2.7828,-2.7882,-2.7889,-2.7943,-2.7963,-2.7973,-2.7983,-2.796,-2.8049,-2.8057,-2.8065,-2.8093,-2.8104,-2.7972,-2.7971,-2.7971,-2.7971,0,-2.7812,-2.7843,-2.7874,-2.7894,-2.7911,-2.7948,-2.794,-2.7959,-2.7947,-2.7946,-2.799,-2.7997,-2.8021,-2.8033,-2.8022,-2.8086,-2.8074,-2.8052,-2.8013,-2.808,-2.8106,-2.8116,-2.7976,-2.7975,-2.7974,-2.7973,0,0,-2.7919,-2.7932,-2.7943,-2.7952,-2.7965,-2.7988,-2.8025,-2.8048,-2.8064,-2.808,-2.8109,-2.8147,-2.8127,-2.8139,-2.8129,-2.8156,-2.8221,-2.813,-2.813,-2.8146,-2.8291,-2.8307,-2.832,-2.8208,-2.821,-2.8212,-2.829,0,-2.7995,-2.8058,-2.8047,-2.8108,-2.8136,-2.811,-2.8142,-2.8154,-2.8153,-2.8177,-2.8176,-2.8203,-2.8174,-2.8181,-2.8207,-2.8207,-2.825,-2.8202,-2.8235,-2.8237,-2.8232,-2.8333,-2.835,-2.8424,-2.83,-2.8302,-2.8303,0,-2.8092,-2.8111,-2.8175,-2.8184,-2.8195,-2.8224,-2.8245,-2.8268,-2.8281,-2.8278,-2.8293,-2.8278,-2.8315,-2.8277,-2.8327,-2.8295,-2.8308,-2.8311,-2.8313,-2.8315,-2.8273,-2.8337,-2.8447,-2.8458,-2.8319,-2.8317,-2.8316,0,-2.8163,-2.8204,-2.8248,-2.8256,-2.8268,-2.8289,-2.8295,-2.8305,-2.832,-2.8339,-2.8348,-2.8371,-2.8383,-2.8402,-2.8393,-2.8367,-2.8445,-2.8407,-2.8444,-2.8444,-2.846,-2.8459,-2.8573,-2.8471,-2.8471,-2.847,-2.847,0,-2.8249,-2.8288,-2.8279,-2.8306,-2.835,-2.8338,-2.8382,-2.8384,-2.8394,-2.8421,-2.8401,-2.8427,-2.8415,-2.844,-2.8434,-2.8476,-2.8482,-2.8481,-2.8479,-2.8482,-2.8482,-2.849,-2.8484,-2.8473,-2.8473,-2.8472,-2.8472,0,-2.8334,-2.833,-2.8375,-2.8383,-2.8386,-2.8418,-2.8424,-2.8449,-2.8448,-2.8482,-2.8489,-2.8487,-2.8515,-2.851,-2.8541,-2.8537,-2.8589,-2.8581,-2.8585,-2.8582,-2.8619,-2.8616,-2.8741,-2.8757,-2.8646,-2.8647,-2.8648,0,-2.8389,-2.8419,-2.843,-2.8446,-2.8454,-2.8481,-2.8496,-2.8486,-2.8503,-2.852,-2.8543,-2.857,-2.859,-2.8637,-2.8638,-2.8662,-2.8653,-2.8696,-2.8657,-2.8659,-2.8653,-2.8651,-2.8654,-2.8703,-2.8704,-2.8705,-2.8706,0,-2.8486,-2.8482,-2.8505,-2.8528,-2.8547,-2.8564,-2.858,-2.8595,-2.8586,-2.8606,-2.8634,-2.8651,-2.8683,-2.8709,-2.8731,-2.8737,-2.872,-2.8719,-2.8728,-2.8732,-2.8732,-2.8732,-2.8605,-2.8716,-2.8715,-2.8714,-2.8713,-2.8713,-2.8557,-2.8582,-2.8594,-2.8621,-2.8631,-2.8646,-2.867,-2.8672,-2.8696,-2.8721,-2.8714,-2.8747,-2.8759,-2.8787,-2.8796,-2.8822,-2.8806,-2.882,-2.8823,-2.8826,-2.8831,-2.8729,-2.8826,-2.8825,-2.8825,-2.8825,-2.8825,0,-2.8652,-2.8659,-2.8683,-2.8706,-2.8727,-2.871,-2.8726,-2.8745,-2.8774,-2.8787,-2.8808,-2.8841,-2.8867,-2.8871,-2.8895,-2.8915,-2.8908,-2.8922,-2.8919,-2.8921,-2.8844,-2.8833,-2.8927,-2.8927,-2.8927,-2.8927,-2.8927,-2.8927,-2.8704,-2.8746,-2.8744,-2.8792,-2.8798,-2.883,-2.8841,-2.8855,-2.8865,-2.8903,-2.8925,-2.8927,-2.8937,-2.8962,-2.8985,-2.8986,-2.8995,-2.9012,-2.9009,-2.8937,-2.8927,-2.8917,-2.8906,-2.9014,-2.9015,-2.9084,-2.9085,-2.9085]},{"header":{"parameterUnit":"m.s-1","parameterCategory":1,"la1":30.2991,"la2":30.254,"lo1":-89.0895,"lo2":-89.0444,"dy":0.0017,"dx":0.0017,"nx":28,"ny":28,"refTime":"2026-02-24T09:00:00:Z","depth":0,"parameterNumber":3,"parameterNumberName":"V-component_of_WINDS"},"data":[0,0,0,0,0,0,0,0,0,0,0,0,0,0,0,0,0,0,0,0,0,0,0,0,0,0,0,0,0,0,0,0,0,0,0,0,0,0,0,0,0,0,0,0,0,0,0,0,0,0,0,0,0,0,0,0,0,0,-0.1896,-0.1897,0,-0.1929,-0.1929,-0.1929,-0.1936,-0.1935,-0.1935,-0.1935,-0.1968,-0.1969,-0.197,0,0,0,0,0,0,0,0,0,0,0,0,0,-0.1839,-0.184,-0.1896,-0.1897,-0.1897,-0.1929,-0.1929,-0.1929,-0.1936,-0.1935,-0.1935,-0.1935,-0.1968,-0.1969,-0.197,0,0,0,0,0,0,0,0,0,0,0,0,0,-0.1867,-0.1841,-0.1896,-0.1904,-0.1905,-0.1929,-0.1929,-0.193,-0.1936,-0.1935,-0.1935,-0.1935,-0.1967,-0.1969,-0.1971,-0.1989,0,0,-0.1976,-0.1977,0,0,0,0,0,0,0,0,-0.1865,-0.1869,-0.1902,-0.1904,-0.1905,-0.1928,-0.1921,-0.1949,-0.1936,-0.1924,-0.1935,-0.1934,-0.1955,-0.1958,-0.1965,-0.199,-0.1992,-0.1976,-0.1977,-0.1978,-0.1978,0,0,0,0,0,0,0,-0.1864,-0.1868,-0.1909,-0.1903,-0.1904,-0.1906,-0.1909,-0.1927,-0.1941,-0.1925,-0.1926,-0.1929,-0.1956,-0.1963,-0.1965,-0.1992,-0.1976,-0.1977,-0.1978,-0.1979,-0.2033,-0.2034,0,0,0,0,0,0,-0.186,-0.1866,-0.1908,-0.191,-0.1884,-0.1907,-0.1911,-0.1921,-0.1941,-0.1944,-0.193,-0.1929,-0.196,-0.1963,-0.1967,-0.1988,-0.1978,-0.1979,-0.198,-0.2033,-0.2033,-0.2034,0,0,0,0,0,0,-0.1859,-0.1864,-0.1907,-0.1888,-0.1894,-0.1908,-0.1919,-0.1922,-0.1929,-0.1945,-0.1947,-0.1935,-0.196,-0.1964,-0.1983,-0.199,-0.198,-0.1982,-0.2032,-0.2033,-0.2034,-0.2033,0,0,0,0,0,0,-0.1857,-0.1863,-0.1871,-0.1888,-0.1895,-0.1923,-0.192,-0.1922,-0.1932,-0.1932,-0.195,-0.1952,-0.196,-0.198,-0.1985,-0.1992,-0.1983,-0.2032,-0.2033,-0.2033,-0.2032,-0.2033,-0.2034,0,0,0,0,0,-0.1855,-0.1869,-0.1871,-0.1876,-0.1904,-0.1923,-0.1927,-0.1935,-0.1932,-0.194,-0.1949,-0.1952,-0.1988,-0.1982,-0.1987,-0.1995,-0.2031,-0.2032,-0.2033,-0.2032,-0.2033,-0.2034,0,0,0,0,0,0,-0.1853,-0.1872,-0.1874,-0.1894,-0.1907,-0.1924,-0.1934,-0.1936,-0.195,-0.195,-0.196,-0.1964,-0.1982,-0.199,-0.1983,-0.2013,-0.201,-0.2012,-0.2007,-0.2008,-0.2009,-0.2006,-0.1984,0,0,0,0,0,-0.1854,-0.1868,-0.1884,-0.1901,-0.1907,-0.1919,-0.1928,-0.1933,-0.1947,-0.1952,-0.1963,-0.1976,-0.1991,-0.2,-0.2014,-0.2033,-0.2037,-0.2041,-0.2042,-0.2043,-0.2044,-0.2054,-0.2056,-0.2037,-0.2037,-0.2037,0,0,-0.1858,-0.187,-0.1879,-0.19,-0.1911,-0.1925,-0.1924,-0.1939,-0.1949,-0.1954,-0.1972,-0.1981,-0.1996,-0.2015,-0.2024,-0.2023,-0.205,-0.2044,-0.2044,-0.2045,-0.2055,-0.2057,-0.2059,-0.2038,-0.2037,-0.2037,0,0,-0.1872,-0.1883,-0.1897,-0.1908,-0.1923,-0.1931,-0.1934,-0.1951,-0.1957,-0.1975,-0.1979,-0.1991,-0.2016,-0.2026,-0.2035,-0.2051,-0.2054,-0.2056,-0.2061,-0.207,-0.2072,-0.2073,-0.2078,-0.208,-0.2057,-0.2057,-0.2057,0,-0.1875,-0.1896,-0.1904,-0.1919,-0.1928,-0.1933,-0.1947,-0.1957,-0.1976,-0.1982,-0.1981,-0.2011,-0.2022,-0.2042,-0.2046,-0.2053,-0.2057,-0.2054,-0.2071,-0.2072,-0.2073,-0.2078,-0.208,-0.2057,-0.2057,-0.2057,-0.2057,0,-0.1898,-0.1912,-0.1922,-0.194,-0.195,-0.1965,-0.1975,-0.1984,-0.1989,-0.1996,-0.2014,-0.2027,-0.2043,-0.2049,-0.2053,-0.207,-0.2069,-0.2069,-0.2065,-0.2075,-0.208,-0.2082,-0.2057,-0.2057,-0.2057,-0.2057,0,0,-0.1911,-0.1933,-0.1937,-0.1945,-0.1962,-0.1973,-0.1987,-0.2003,-0.201,-0.2023,-0.2035,-0.2055,-0.2055,-0.2065,-0.207,-0.2079,-0.209,-0.2078,-0.2078,-0.2079,-0.2108,-0.2107,-0.211,-0.2091,-0.2092,-0.2092,-0.2106,0,-0.1927,-0.1952,-0.196,-0.1981,-0.1994,-0.1999,-0.2011,-0.2023,-0.203,-0.2042,-0.205,-0.2064,-0.2063,-0.2069,-0.2077,-0.2087,-0.2096,-0.2086,-0.2102,-0.2103,-0.2098,-0.2112,-0.2112,-0.2125,-0.2109,-0.2109,-0.2109,0,-0.1948,-0.1961,-0.1984,-0.1998,-0.2004,-0.2015,-0.2029,-0.2041,-0.2054,-0.2058,-0.2069,-0.2073,-0.2088,-0.2084,-0.2103,-0.2096,-0.2103,-0.2109,-0.2109,-0.2111,-0.2106,-0.2114,-0.2129,-0.2131,-0.2112,-0.2112,-0.2112,0,-0.1955,-0.1978,-0.1994,-0.2001,-0.2019,-0.2026,-0.2034,-0.2046,-0.2055,-0.2067,-0.2073,-0.2087,-0.2095,-0.2105,-0.2113,-0.211,-0.2132,-0.2129,-0.2136,-0.2136,-0.214,-0.214,-0.2157,-0.2145,-0.2145,-0.2145,-0.2145,0,-0.1971,-0.1985,-0.1997,-0.2007,-0.2022,-0.203,-0.2045,-0.2053,-0.2064,-0.2075,-0.208,-0.209,-0.21,-0.2112,-0.2118,-0.2133,-0.2137,-0.2141,-0.2142,-0.214,-0.2139,-0.2145,-0.2144,-0.2146,-0.2146,-0.2146,-0.2146,0,-0.1981,-0.199,-0.2008,-0.2023,-0.2027,-0.2037,-0.205,-0.2059,-0.2067,-0.2081,-0.2085,-0.2096,-0.211,-0.2119,-0.2137,-0.2141,-0.2157,-0.2158,-0.2152,-0.2153,-0.2159,-0.2158,-0.218,-0.2183,-0.217,-0.217,-0.217,0,-0.1991,-0.2001,-0.2017,-0.2025,-0.2032,-0.2045,-0.2053,-0.2062,-0.207,-0.2085,-0.2093,-0.2107,-0.2118,-0.214,-0.215,-0.2163,-0.2165,-0.2171,-0.2167,-0.2164,-0.2164,-0.2163,-0.2164,-0.2172,-0.2172,-0.2172,-0.2172,0,-0.2007,-0.201,-0.2023,-0.2036,-0.2046,-0.2057,-0.2068,-0.2074,-0.2084,-0.2094,-0.2108,-0.2117,-0.2134,-0.2148,-0.2162,-0.2169,-0.2172,-0.2174,-0.2176,-0.2174,-0.2169,-0.2171,-0.2154,-0.2173,-0.2173,-0.2173,-0.2173,-0.2173,-0.2016,-0.2025,-0.2038,-0.2051,-0.206,-0.207,-0.2079,-0.2087,-0.2099,-0.2114,-0.2118,-0.2132,-0.2144,-0.2163,-0.2171,-0.2182,-0.2181,-0.2185,-0.2186,-0.2186,-0.2186,-0.2168,-0.2185,-0.2185,-0.2185,-0.2185,-0.2185,0,-0.2032,-0.204,-0.2052,-0.2067,-0.2077,-0.2079,-0.2091,-0.2099,-0.2111,-0.2122,-0.2133,-0.2149,-0.2162,-0.2172,-0.2185,-0.2192,-0.2194,-0.2195,-0.2195,-0.2196,-0.2186,-0.2183,-0.2194,-0.2194,-0.2194,-0.2194,-0.2194,-0.2194,-0.2041,-0.2056,-0.2061,-0.208,-0.2088,-0.2102,-0.2109,-0.2118,-0.2126,-0.2143,-0.2154,-0.2161,-0.2171,-0.2185,-0.2197,-0.2199,-0.2204,-0.2205,-0.2208,-0.2198,-0.2197,-0.2196,-0.2193,-0.2206,-0.2206,-0.2217,-0.2217,-0.2217]}]]